This demonstration page uses our WeatherBlox Daily Observations layout. Learn more.

41.55636, -103.73856

Hourly Observations for February 7, 2019

Temp ( °F °C ) Dew Point ( °F °C ) Humidity (%) Winds ( mph kmh ) Pressure ( in mb ) Visibility ( mi km ) Precip ( " mm )
12:58 am 00:58 Mostly Cloudy with Scattered Snow Showers -2 -19.1 -7 -21.4 82 82 N 5 7 30.13 1020 4 6.43736 N/A
1:58 am 01:58 Mostly Cloudy with Scattered Snow Showers -2 -18.9 -6 -21.2 82 82 N 5 7 30.17 1022 10 16.0934 N/A
2:58 am 02:58 Cloudy with Snow Showers -3 -19.4 -7 -21.7 82 82 NNE 5 7 30.19 1022 5 8.0467 N/A
3:58 am 03:58 Mostly Cloudy with Scattered Snow Showers -3 -19.5 -7 -21.8 82 82 N 5 7 30.22 1023 5 8.0467 N/A
4:58 am 04:58 Mostly Cloudy with Light Snow Showers -4 -20 -8 -22.4 81 81 N 8 13 30.23 1024 7 11.26538 N/A
5:58 am 05:58 Mostly Cloudy with Light Snow Showers -6 -21 -10 -23.4 81 81 N 6 9 30.27 1025 10 16.0934 N/A
6:58 am 06:58 Mostly Cloudy with Scattered Snow Showers -6 -21.3 -11 -23.9 80 80 N 7 11 30.27 1025 10 16.0934 N/A
7:58 am 07:58 Mostly Cloudy with Scattered Snow Showers -6 -21.2 -11 -23.7 80 80 N 6 9 30.29 1026 9 14.48406 N/A
8:58 am 08:58 Mostly Cloudy with Scattered Snow Showers -8 -22 -12 -24.6 80 80 NNW 7 11 30.31 1027 4 6.43736 N/A
9:58 am 09:58 Clear -9 -22.6 -13 -25.2 79 79 N 13 20 30.31 1027 10 16.0934 N/A
10:58 am 10:58 Clear with Light Snow Showers -9 -22.8 -14 -25.5 79 79 NNW 7 11 30.33 1027 10 16.0934 N/A
11:58 am 11:58 Clear -10 -23.4 -15 -26.1 79 79 Calm 30.35 1028 9 14.48406 N/A
12:58 pm 12:58 Clear with Light Snow Showers -12 -24.4 -17 -27.4 76 76 Calm 30.37 1029 10 16.0934 N/A
1:58 pm 13:58 Clear -15 -25.9 -20 -28.9 76 76 Calm 30.41 1030 10 16.0934 N/A
2:58 pm 14:58 Sunny -10 -23.2 -16 -26.4 75 75 Calm 30.42 1030 10 16.0934 N/A
3:58 pm 15:58 Sunny -8 -22.1 -12 -24.6 80 80 NNW 5 7 30.44 1031 10 16.0934 N/A
4:58 pm 16:58 Sunny -5 -20.8 -10 -23.3 80 80 N 12 19 30.43 1030 10 16.0934 N/A
5:58 pm 17:58 Sunny -4 -19.8 -8 -22.1 82 82 NNW 12 19 30.43 1030 10 16.0934 N/A
6:58 pm 18:58 Sunny -1 -18.6 -6 -21 82 82 NNW 10 17 30.43 1030 10 16.0934 N/A
7:58 pm 19:58 Mostly Sunny 1 -17.4 -3 -19.6 83 83 NNW 12 19 30.4 1030 10 16.0934 N/A
8:58 pm 20:58 Mostly Cloudy 1 -17.3 -3 -19.4 84 84 NW 15 24 30.41 1030 10 16.0934 N/A
9:58 pm 21:58 Mostly Sunny 2 -16.5 -1 -18.6 84 84 NW 13 20 30.42 1030 10 16.0934 N/A
10:58 pm 22:58 Sunny 3 -15.9 -2 -19.1 77 77 NW 12 19 30.45 1031 10 16.0934 N/A

Powered by AerisWeather